COSMOS 1039

Satellite information

Favourite Embed

Satellite Type and Status

PAYLOADIN ORBIT

Key statistics

Satellite COSMOS 1039 at a glance.

Uptime

17242

Days in orbit

Revolutions

≈ 12.4

Per day

Orbit

LEO

Low Earth Orbit

Inclination

74.0

Latest

Satellite identification and parameters

Extended collection of information and parameters for COSMOS 1039.

Object identification

Identified? True

Debris? False

Object name: COSMOS 1039

International designator: 1978-091F

Object number (NORAD): 11048

Object ID (CCSDS): 11048

Country: COMMONWEALTH OF INDEPENDENT STATES (CIS)

Current information (Y/N): Y

RCS size: MEDIUM

Orbital parameters

Period: 116.314 minutes

Inclination: 74.0367 deg

SMA: 7893.119 km

Apoapsis: 1550.744 km

Periapsis: 1479.224 km

RAAN: 6.2411 deg

Eccentricy: 0.00453051

Argument of periapsis: 112.3236 deg

Mean anomaly: 60.1852 deg

Mean motion: 12.38026095 rev/day

Mean motion (dot): 0.0 rev/day2

B* drag term: 0.00011890338 1/REarth

Two-line elements (TLE)

Creation date: Dec. 18, 2025, 2:19 a.m.

Reference frame: TEME

Reference center: EARTH

Epoch: Dec. 17, 2025, 7:08 p.m. UTC

TLE line 0: 0 COSMOS 1039

TLE line 1: 1 11048U 78091F 25351.79748632 .00000000 00000-0 11890-3 0 9993

TLE line 2: 2 11048 74.0367 6.2411 0045305 112.3236 60.1852 12.38026095655084

Live tracking on map

Real-time ground track for satellite COSMOS 1039.

In-orbit conjunctions

A list of the most updated potential collisions computed for object COSMOS 1039.

Target Orbit TCA Probability of collision Miss distance Type
DELTA 1 DEB SSO 2025-02-12 07:44:17 0.000115744 414.0 (m) DEBRIS
THORAD DELTA 1 DEB SSO 2024-07-29 19:20:30 0.0002632952 255.0 (m) DEBRIS

Associated space launch

Military communications satellites

COSMOS 1039 was lifted into orbit during the mission ‘Kosmos-3M | Strela-1M 153-160’, on board a Kosmos-3M space rocket.

The launch took place on Oct. 4, 1978, 3:49 a.m. from 132/1 (132L).

For more information about the launch, click the button.

Launch to space Kosmos-3M | Strela-1M 153-160
Kosmos-3M | Strela-1M 153-160

Agency: N/A

Status: Launch Successful

Launch date: Oct. 4, 1978, 3:49 a.m. UTC

Rocket: Kosmos-3M

Launch pad: 132/1 (132L)

Location: Plesetsk Cosmodrome, Russian Federation

...

Latest news about this satellite

There are no fresh news available about this satellite. Check back as we update our databases every day.


Newsletter sign-up

Weekly statistics, charts and insights to help you stay on top of the space industry.